Simultaneous Nadir Overpasses (SNOs) Predictions

Prediction of SNOs between LANDSAT-8 and METOP-A Satellite Orbit:

Table of predicted SNOs for the next 14.0 days since TLE Epoch: 12/7/2014
Index Date (LANDSAT-8) Time (LANDSAT-8) Lat,Lon (LANDSAT-8) SZA (LANDSAT-8 ) Date (METOP-A) Time (METOP-A) Lat,Lon (METOP-A) SZA (METOP-A ) Distance(km) Time Diff (sec)
1 12/08/2014 11:01:40 -81.13,-125.55 74.03 12/08/2014 11:01:32 -81.12,-125.57 74.04 0.59 8
2 12/08/2014 11:51:06 81.13, 42.18 105.99 12/08/2014 11:52:11 81.14, 42.28 106.03 1.91 65
3 12/11/2014 05:46:27 81.09, 132.75 106.13 12/11/2014 05:45:15 81.10, 132.72 106.10 0.48 72
4 12/11/2014 06:35:53 -81.11, -59.32 73.83 12/11/2014 06:35:55 -81.11, -59.47 73.85 2.68 2
5 12/11/2014 07:24:38 81.77, 124.70 108.39 12/11/2014 07:25:51 81.32, 125.17 108.23 50.82 73
6 12/14/2014 01:20:38 81.11,-160.56 106.33 12/14/2014 01:19:36 81.11,-160.52 106.31 0.80 62
7 12/14/2014 02:10:04 -81.13, 7.38 73.63 12/14/2014 02:10:16 -81.12, 7.30 73.63 1.47 12
8 12/16/2014 20:54:48 81.11, -94.14 106.44 12/16/2014 20:53:57 81.10, -94.21 106.41 1.25 51
9 12/16/2014 21:44:14 -81.13, 73.81 73.52 12/16/2014 21:44:37 -81.12, 73.63 73.54 3.29 23
10 12/19/2014 16:28:58 81.11, -27.61 106.49 12/19/2014 16:28:18 81.11, -27.59 106.48 0.47 40




NCC Satellite Simultaneous Nadir Overpasses (SNOs) Prediction Service
